SCP
1 1 1 1 0 0 1 1 1 1 1 2 2 1 1 1 1 1 1 1 1 1 1 2 2 2 2 1 1 1 1 1 1 1 1 1 1 1 1 1 1 1 1
1 1 1 1 1 0 1 1 1 2 2 3 3 3 2 1 1 1 1 1 1 2 2 2 2 2 1 1 1 1 1 1 1 1 1 1 1 1 1 1 1 1 1
2 2 1 1 1 1 1 1 2 2 3 4 5 5 4 2 1 1 1 1 1 2 2 2 2 1 1 1 1 1 1 1 1 1 1 1 1 1 1 2 1 1 1
3 3 2 1 1 2 2 2 2 3 4 6 7 6 4 2 1 1 1 1 1 1 1 2 2 1 1 1 2 2 1 1 1 1 1 1 1 1 1 1 1 1 1
3 3 3 2 2 2 2 3 3 4 6 7 6 4 2 1 1 1 1 1 1 1 1 1 1 1 1 1 1 2 2 1 1 1 1 1 1 1 1 1 1 1 1
3 4 4 3 3 3 3 4 4 5 6 7 5 3 1 1 1 1 1 1 1 1 1 1 1 1 1 1 1 1 1 1 1 1 1 1 1 1 1 1 1 1 1
4 5 5 5 5 4 3 4 5 5 6 5 4 2 1 1 1 1 1 1 1 1 1 1 1 1 1 1 1 1 1 1 1 1 1 1 1 1 1 1 1 1 1
5 5 6 6 5 4 4 4 4 5 5 5 3 2 1 1 1 1 0 0 1 1 1 1 1 1 1 1 1 1 1 1 1 1 1 1 1 1 1 1 1 1 1
5 5 4 4 4 4 4 4 4 4 4 4 3 2 1 1 1 1 1 1 1 1 1 1 1 1 1 1 1 1 1 1 1 1 1 1 1 1 1 1 1 1 1
4 4 4 3 3 3 3 4 4 4 4 4 4 3 2 1 1 1 1 1 0 1 1 1 1 1 1 1 1 1 1 1 1 1 1 1 1 1 1 1 1 1 1
5 4 4 4 5 5 5 5 5 4 4 4 4 3 2 1 1 1 1 1 1 0 1 1 1 1 1 1 1 1 0 0 0 0 0 1 1 1 1 1 1 1 1
6 6 6 7 8 9 8 6 6 6 5 4 3 3 2 1 1 1 1 1 1 0 1 1 1 1 1 1 1 1 0 0 0 0 0 1 1 1 1 1 1 1 1
6 7 8 9 10 10 9 8 8 8 6 4 3 3 2 1 1 1 1 1 1 1 1 1 1 1 1 1 1 1 0 0 0 0 0 0 1 1 1 1 1 1 1
5 7 8 8 8 9 9 10 11 10 7 4 3 3 2 2 1 2 2 2 1 1 1 1 1 1 1 1 1 1 1 0 0 0 0 0 0 0 1 1 0 0 0
5 6 7 7 7 9 11 11 10 9 6 4 3 3 3 2 2 2 2 2 1 1 1 1 1 1 1 1 1 1 1 1 1 0 0 0 0 0 0 0 0 0 0
7 7 8 8 7 9 10 9 7 6 4 3 3 3 3 2 2 2 2 2 2 1 1 1 1 1 2 2 1 1 1 1 1 1 1 0 0 0 0 0 0 0 0
8 9 9 8 7 6 6 5 4 3 3 3 3 3 3 2 2 2 2 2 2 2 1 1 1 1 2 2 2 1 1 1 1 1 1 0 0 0 0 0 0 0 0
8 8 7 7 6 5 4 4 3 3 2 2 3 3 3 2 2 3 3 3 3 3 2 1 1 1 1 2 2 2 1 1 1 1 1 1 0 0 0 0 0 0 0
6 6 6 5 5 5 4 4 4 3 3 3 3 3 3 3 3 3 4 4 4 3 2 2 1 1 1 2 2 3 2 2 2 1 1 1 1 0 0 0 0 0 0
5 5 5 5 4 4 4 3 3 3 3 3 3 3 3 3 3 3 3 4 4 3 2 2 2 1 1 2 3 3 3 3 2 2 2 2 1 1 0 0 0 0 0
5 5 5 5 4 3 2 2 3 3 3 3 2 2 2 2 2 2 2 2 2 2 2 2 2 1 1 1 2 2 3 3 2 2 3 3 2 2 2 1 0 0 0
6 6 6 5 4 3 2 2 2 3 3 3 2 2 2 2 1 1 1 1 1 2 2 2 2 2 1 1 2 2 2 2 3 3 3 3 3 3 3 2 1 0 0
8 7 6 5 5 3 2 2 2 3 4 4 3 3 2 2 2 2 1 1 1 1 1 2 3 3 2 2 2 3 3 3 3 3 3 3 3 3 3 3 1 0 0
9 8 6 5 5 4 3 1 2 4 5 4 3 3 3 2 2 2 2 2 2 1 1 2 3 3 3 3 3 3 4 3 3 3 3 3 3 3 3 3 2 1 0
11 9 7 7 6 5 3 2 2 5 6 4 3 2 2 2 2 2 2 3 2 2 2 2 2 2 2 2 3 3 3 3 3 3 3 3 3 4 4 3 2 1 0
12 10 9 8 7 6 4 2 3 5 6 4 3 2 2 2 2 2 2 3 3 3 3 2 2 2 2 2 2 2 3 3 3 3 3 4 4 4 4 3 2 1 1
Wind_Speed
1 1 1 1 1 1 1 1 2 2 1 1 1 1 1 1 1 1 4 6 4 3 3 3 3 3 4 5 5 5 5 5 6 6 6 6 7 7 6 7 7 7 7
1 0 1 1 1 1 2 1 2 2 1 1 1 2 1 1 1 0 1 4 6 5 4 3 3 3 4 4 4 4 4 4 4 4 5 6 7 7 7 7 6 6 7
1 1 1 1 1 0 1 1 1 1 2 1 2 1 1 2 1 1 0 1 4 7 6 4 4 4 4 4 4 4 4 4 4 4 4 4 6 6 7 7 7 6 6
1 1 1 1 0 1 1 1 1 1 1 1 1 1 2 2 1 1 1 1 1 2 6 7 5 4 3 3 3 3 4 4 3 3 3 3 4 4 5 6 6 5 5
2 2 1 0 1 1 0 0 2 1 1 1 1 2 2 2 1 2 2 2 2 1 2 6 7 5 3 3 3 3 3 3 3 3 2 2 3 3 4 4 4 4 4
2 2 2 1 1 1 0 0 1 1 0 0 1 2 2 2 1 2 1 2 2 2 2 2 3 5 5 4 3 2 2 3 3 3 3 2 2 2 3 3 4 4 4
2 2 1 1 2 1 1 1 1 2 1 1 1 1 2 2 1 1 1 1 2 2 2 2 1 1 3 6 4 3 2 2 3 3 3 3 3 3 3 3 3 3 3
3 3 2 2 1 1 1 1 2 1 1 1 2 1 1 3 2 2 2 2 1 1 2 2 1 1 0 1 6 5 3 3 3 2 2 2 3 3 3 2 2 2 3
3 2 2 2 2 2 1 2 2 3 2 1 1 3 2 1 2 3 2 2 2 1 1 1 1 1 0 1 2 5 4 3 3 3 2 2 2 2 2 2 2 2 2
4 3 3 3 2 2 1 3 1 2 2 2 1 1 2 2 2 1 2 3 2 1 1 1 1 2 1 1 3 6 5 3 3 3 2 2 1 1 1 2 2 2 2
4 4 4 3 3 2 2 2 1 2 2 3 2 1 1 1 2 2 1 1 1 1 1 1 1 1 1 1 2 5 4 3 3 2 1 1 1 0 1 2 2 2 3
3 4 4 3 3 3 3 3 2 3 2 2 2 2 2 2 2 1 1 1 1 1 1 1 0 1 1 1 3 6 4 2 2 1 1 1 1 1 2 2 2 2 3
3 4 3 3 3 3 3 3 3 2 2 3 3 2 2 2 2 2 2 1 1 1 2 1 1 0 1 1 2 4 3 2 1 1 1 1 1 2 2 2 2 2 3
3 3 4 4 4 3 3 3 3 3 2 2 3 2 2 2 2 2 2 2 2 2 2 2 1 1 0 1 3 2 2 3 1 0 1 1 1 1 2 2 2 2 2
3 4 4 4 4 4 3 3 2 2 2 3 3 3 3 2 2 2 2 3 3 2 1 2 2 2 1 1 2 2 1 3 2 1 1 2 1 1 2 1 2 2 2
3 4 4 4 4 4 4 3 3 3 3 3 2 2 3 2 2 2 2 3 3 3 2 1 1 1 0 1 2 2 1 3 4 3 2 2 2 2 2 1 1 1 2
4 4 4 4 4 4 4 4 4 4 4 4 3 3 3 2 2 2 2 2 3 3 3 2 1 2 2 2 2 2 3 3 2 5 3 3 3 3 3 2 2 2 2
4 4 4 4 5 4 4 4 5 4 4 4 3 3 3 3 3 3 2 2 2 3 4 3 2 2 2 3 3 3 3 2 2 5 5 4 3 3 3 3 3 3 2
4 4 4 4 4 4 4 5 5 4 4 4 3 3 3 2 2 2 3 3 3 3 3 3 3 2 2 2 2 3 2 2 3 4 6 6 5 5 5 4 4 3 3
4 4 4 4 4 4 4 4 5 4 4 4 3 3 2 2 2 2 2 3 3 3 3 4 3 3 2 2 3 3 3 2 3 2 2 3 5 7 7 6 5 5 4
4 4 4 4 4 3 3 4 4 5 4 4 3 3 2 1 1 2 2 1 2 2 3 3 3 3 2 2 3 2 3 2 3 3 3 3 3 4 5 7 7 5 5
4 4 4 4 3 2 1 1 3 3 3 4 3 3 4 4 3 2 1 2 3 3 3 3 3 2 2 3 3 3 3 3 3 2 3 4 3 3 3 2 4 5 5
3 3 3 3 3 2 2 2 2 3 3 3 3 3 3 2 3 3 4 5 4 4 4 5 4 4 4 3 4 5 3 5 4 2 4 5 4 4 2 1 6 6 5
3 3 3 3 3 3 3 3 2 4 3 3 3 4 3 2 2 3 3 4 4 4 5 5 4 5 4 3 4 5 5 5 6 4 4 5 4 3 3 1 6 6 6
3 3 3 3 3 2 3 3 4 4 3 3 4 3 3 3 1 3 4 4 4 5 5 4 4 3 3 4 4 5 5 5 5 4 3 4 4 4 3 3 4 7 7
3 3 3 2 3 3 3 3 4 4 3 3 3 4 2 2 2 3 5 5 5 5 4 4 6 7 7 6 7 6 6 5 5 4 1 3 4 3 4 3 2 3 4
Wind_Direction
94 93 88 59 42 73 114 110 102 94 82 85 82 79 66 80 117 134 120 132 158 180 175 175 167 162 162 161 167 170 176 186 197 199 199 195 195 199 201 210 212 210 204
86 121 134 108 69 38 39 54 90 102 93 80 79 74 59 79 90 120 124 139 152 161 164 155 147 140 141 147 150 156 165 172 177 184 193 201 203 204 205 212 209 212 211
146 216 170 173 102 105 134 116 108 96 113 112 92 88 80 49 57 51 24 107 140 146 149 139 129 130 132 132 135 137 150 158 159 164 177 189 195 202 207 206 204 208 207
199 229 205 149 163 206 158 124 115 91 78 70 74 59 68 73 50 57 84 93 97 128 136 136 134 129 135 139 138 141 139 136 141 150 162 169 177 189 195 195 199 201 206
210 227 222 120 214 219 246 322 90 70 85 69 100 89 65 68 67 76 79 74 89 95 115 134 143 139 137 138 135 142 141 134 127 126 130 140 157 169 180 186 190 191 189
208 238 196 183 235 187 174 81 104 100 97 71 61 79 61 61 50 74 93 96 102 109 100 101 145 143 140 140 137 138 142 141 140 143 137 133 134 140 147 160 169 176 184
205 232 253 176 241 194 234 210 187 166 180 182 196 139 122 106 79 93 91 81 98 100 99 107 109 95 145 145 146 138 139 145 142 137 138 133 135 134 137 151 164 173 183
220 205 222 231 215 201 202 234 228 243 212 229 281 260 193 155 130 97 109 113 82 92 98 111 112 132 223 142 113 122 104 104 114 111 114 128 137 143 149 156 174 187 192
209 220 203 220 223 231 199 237 242 249 250 225 293 300 301 8 111 125 110 97 84 57 57 83 98 93 116 81 106 119 101 91 90 88 86 104 126 147 159 172 191 199 196
215 207 210 210 228 235 219 238 224 253 251 246 196 293 327 348 304 145 145 119 110 81 31 24 85 103 89 84 86 76 87 82 82 79 74 81 101 145 177 194 202 201 190
210 213 207 205 210 222 226 251 241 256 250 260 252 216 201 192 251 269 166 129 136 109 86 92 45 72 103 114 112 94 96 87 78 70 54 45 46 332 238 228 215 203 196
198 203 206 202 207 215 208 218 222 214 241 263 271 258 248 237 223 234 230 211 178 128 104 85 166 138 129 125 91 93 107 108 88 66 46 18 333 290 267 242 229 219 214
198 192 200 204 210 215 215 208 197 222 219 226 239 241 245 252 270 259 251 249 226 173 169 186 178 180 150 135 107 107 129 131 109 73 16 332 304 290 270 245 238 237 230
214 188 194 201 204 211 213 201 197 199 207 219 228 241 237 233 250 245 250 253 237 207 181 171 170 165 137 156 89 177 159 147 152 147 285 283 287 301 274 249 244 241 234
204 187 196 197 198 202 210 207 197 196 205 218 214 207 227 213 241 247 247 256 262 246 210 166 194 157 197 176 128 230 216 138 173 213 247 254 260 275 282 272 248 236 227
202 188 193 196 197 197 199 202 188 186 205 216 223 226 234 215 223 237 235 240 253 262 267 174 194 160 220 263 174 251 248 164 194 199 215 226 238 255 263 271 272 246 228
196 194 198 202 199 198 199 200 208 198 201 203 209 203 212 238 235 232 228 230 235 239 243 239 212 157 198 253 246 250 238 233 185 172 183 203 223 238 245 244 241 242 236
196 196 203 207 206 202 205 206 208 203 204 199 200 202 210 207 221 242 240 236 236 239 242 241 227 211 218 229 236 246 249 243 240 156 178 199 216 228 236 238 234 235 239
199 198 200 205 210 206 208 209 204 203 200 193 198 203 206 210 224 237 244 237 231 227 234 234 234 216 222 221 228 234 251 261 253 186 184 194 204 216 222 226 225 225 230
193 199 207 207 204 205 209 208 202 203 201 196 198 203 209 210 226 238 237 243 245 243 234 236 234 221 221 211 238 241 244 239 261 262 250 224 198 206 215 215 213 214 220
190 193 201 201 203 209 218 222 212 203 205 203 196 194 183 165 21 302 289 267 249 248 246 240 234 235 234 239 250 263 266 264 254 253 261 250 223 227 208 200 203 207 216
188 191 199 201 200 197 113 253 249 215 211 212 212 207 194 190 177 188 305 324 309 272 268 266 252 257 261 268 273 271 271 268 264 240 269 269 261 262 256 238 155 180 210
176 191 197 194 193 165 137 172 232 230 219 218 218 226 236 186 216 212 203 212 227 245 256 269 276 277 271 281 284 273 278 282 287 277 267 272 265 266 261 150 150 174 201
188 196 199 201 196 159 149 170 217 219 211 213 221 226 233 232 243 262 242 233 238 235 235 238 259 270 280 286 267 269 271 262 258 248 246 270 274 275 275 244 161 181 199
193 196 193 198 195 170 161 184 227 214 203 215 224 222 230 225 204 272 251 241 244 240 216 215 239 253 275 277 277 267 264 266 270 264 244 272 284 289 275 250 179 184 201
195 198 182 195 198 191 171 188 229 229 211 217 214 209 200 237 225 255 252 251 253 259 260 229 223 226 232 227 225 245 265 270 280 281 267 273 281 288 279 258 248 211 207